Location: Vancouver
(49.2500°N, 123.1330°W)
Time: 10:52:09
(UTC-07:00)

ERS-2 - Visible Passes

Search period start: 27 May 2015 00:00
Search period end: 06 June 2015 00:00
Orbit: 516 x 522 km, 98.5° (Epoch: 27 May)

Date Brightness Start Highest point End Pass type
(mag) Time Alt. Az. Time Alt. Az. Time Alt. Az.
27 May 3.7 00:26:19 10° N 00:29:46 32° WNW 00:31:54 18° WSW visible
27 May 4.0 22:39:16 10° NE 22:41:48 17° E 22:43:00 15° ESE visible
28 May 3.1 00:12:26 10° N 00:16:06 45° WNW 00:18:04 23° SW visible
28 May 4.3 22:26:20 10° ENE 22:27:52 12° E 22:29:08 11° ESE visible
28 May 2.5 23:58:37 10° N 00:02:24 65° WNW 00:04:13 29° SW visible
29 May 2.1 23:44:51 10° NNE 23:48:41 87° ESE 23:50:21 32° SSW visible
30 May 5.0 01:20:54 10° NW 01:22:10 11° WNW 01:23:17 10° WNW visible
30 May 2.3 23:31:09 10° NNE 23:34:55 60° ESE 23:36:29 32° S visible
31 May 4.8 01:06:17 10° NNW 01:08:34 15° WNW 01:10:44 10° W visible
31 May 2.8 23:17:30 10° NNE 23:21:07 41° E 23:22:36 28° SSE visible
01 Jun 4.5 00:52:05 10° NNW 00:54:56 20° WNW 00:57:40 10° WSW visible
01 Jun 3.3 23:03:56 10° NE 23:07:16 29° E 23:08:42 22° SE visible
02 Jun 4.0 00:38:01 10° N 00:41:16 27° WNW 00:43:47 14° WSW visible
02 Jun 3.8 22:50:30 10° NE 22:53:23 21° E 22:54:48 17° ESE visible
03 Jun 3.5 00:24:02 10° N 00:27:34 37° WNW 00:29:53 18° SW visible
03 Jun 4.1 22:37:16 10° NE 22:39:27 15° E 22:40:54 13° ESE visible
04 Jun 2.8 00:10:08 10° N 00:13:51 52° WNW 00:15:58 23° SW visible
04 Jun 4.5 22:24:46 10° ENE 22:25:28 11° E 22:26:23 10° ESE visible
04 Jun 2.3 23:56:17 10° NNE 00:00:06 76° WNW 00:02:03 27° SSW visible
05 Jun 2.1 23:42:29 10° NNE 23:46:18 74° ESE 23:48:08 29° S visible
